| time (UTC) | temp C | wind direction | speed KPH | gust KPH | rain 1hr cm | rain 24hr cm | rain mn cm | humidity % | barometer mb |
| 20260504081552 | 20 | 219 | 20.9 | 32.2 | 0.00 | 0.00 | 0.00 | 28 | 1017.9 |
| 20260504044558 | 8 | 182 | 6.4 | 12.9 | 0.00 | 0.00 | 0.00 | 62 | 1017.6 |
| 20260504043052 | 6 | 229 | 1.6 | 4.8 | 0.00 | 0.00 | 0.00 | 70 | 1017.5 |
| 20260504041549 | 3 | 0 | 0.0 | 4.8 | 0.00 | 0.00 | 0.00 | 74 | 1017.6 |
| 20260504034558 | 2 | 196 | 1.6 | 4.8 | 0.00 | 0.00 | 0.00 | 75 | 1017.7 |
| 20260504033126 | 2 | 196 | 3.2 | 4.8 | 0.00 | 0.00 | 0.00 | 73 | 1017.8 |
| 20260504031549 | 3 | 195 | 4.8 | 11.3 | 0.00 | 0.00 | 0.00 | 75 | 1017.9 |
| 20260504030052 | 2 | 174 | 4.8 | 12.9 | 0.00 | 0.00 | 0.00 | 79 | 1017.9 |
| 20260504024556 | 1 | 196 | 9.7 | 16.1 | 0.00 | 0.00 | 0.00 | 81 | 1017.8 |
| 20260504023100 | 0 | 214 | 3.2 | 8.0 | 0.00 | 0.00 | 0.00 | 79 | 1017.8 |
| 20260504021557 | 0 | 207 | 1.6 | 8.0 | 0.00 | 0.00 | 0.00 | 79 | 1017.9 |
| 20260504020057 | 1 | 243 | 1.6 | 6.4 | 0.00 | 0.00 | 0.00 | 79 | 1017.9 |
| 20260504014553 | 1 | 247 | 3.2 | 6.4 | 0.00 | 0.00 | 0.00 | 79 | 1017.9 |
| 20260504013104 | 1 | 247 | 3.2 | 6.4 | 0.00 | 0.00 | 0.00 | 79 | 1018.0 |
| 20260504011548 | 1 | 205 | 0.0 | 4.8 | 0.00 | 0.00 | 0.00 | 78 | 1018.0 |
| 20260504010054 | 1 | 0 | 0.0 | 4.8 | 0.00 | 0.00 | 0.00 | 76 | 1018.2 |
| 20260504004605 | 2 | 205 | 1.6 | 4.8 | 0.00 | 0.00 | 0.00 | 73 | 1018.1 |
| 20260504003042 | 3 | 0 | 0.0 | 4.8 | 0.00 | 0.00 | 0.00 | 72 | 1018.0 |
| 20260504001543 | 4 | 0 | 0.0 | 8.0 | 0.00 | 0.00 | 0.00 | 73 | 1018.2 |
| 20260504000046 | 5 | 196 | 4.8 | 8.0 | 0.00 | 0.00 | 0.00 | 73 | 1018.3 |
| 20260503234551 | 5 | 159 | 3.2 | 8.0 | 0.00 | 0.00 | 0.00 | 75 | 1018.4 |
| 20260503233044 | 3 | 0 | 1.6 | 9.7 | 0.00 | 0.00 | 0.00 | 74 | 1018.4 |
| 20260503231546 | 5 | 215 | 3.2 | 6.4 | 0.00 | 0.00 | 0.00 | 70 | 1018.4 |
| 20260503230046 | 6 | 218 | 4.8 | 8.0 | 0.00 | 0.00 | 0.00 | 72 | 1018.4 |
| 20260503224546 | 5 | 198 | 1.6 | 3.2 | 0.00 | 0.00 | 0.00 | 72 | 1018.7 |
| 20260503223057 | 6 | 198 | 3.2 | 12.9 | 0.00 | 0.00 | 0.00 | 73 | 1018.7 |
| 20260503221551 | 5 | 200 | 6.4 | 11.3 | 0.00 | 0.00 | 0.00 | 77 | 1018.7 |
| 20260503220050 | 3 | 217 | 6.4 | 9.7 | 0.00 | 0.00 | 0.00 | 78 | 1018.7 |
| 20260503214543 | 2 | 238 | 1.6 | 4.8 | 0.00 | 0.00 | 0.00 | 79 | 1018.8 |
| 20260503213100 | 2 | 244 | 1.6 | 6.4 | 0.00 | 0.00 | 0.00 | 77 | 1018.7 |
| 20260503211549 | 3 | 285 | 3.2 | 6.4 | 0.00 | 0.00 | 0.00 | 76 | 1018.7 |
| 20260503210059 | 3 | 286 | 3.2 | 4.8 | 0.00 | 0.00 | 0.00 | 77 | 1018.7 |
| 20260503204554 | 3 | 286 | 1.6 | 4.8 | 0.00 | 0.00 | 0.00 | 74 | 1018.7 |
| 20260503203044 | 4 | 286 | 3.2 | 4.8 | 0.00 | 0.00 | 0.00 | 74 | 1018.8 |
| 20260503201547 | 5 | 286 | 3.2 | 6.4 | 0.00 | 0.00 | 0.00 | 72 | 1018.8 |
| 20260503200057 | 6 | 0 | 0.0 | 4.8 | 0.00 | 0.00 | 0.00 | 71 | 1018.9 |
| 20260503194549 | 6 | 0 | 0.0 | 6.4 | 0.00 | 0.00 | 0.00 | 70 | 1018.8 |
| 20260503193052 | 6 | 294 | 3.2 | 6.4 | 0.00 | 0.00 | 0.00 | 68 | 1018.6 |
| 20260503191550 | 8 | 317 | 4.8 | 9.7 | 0.00 | 0.00 | 0.00 | 62 | 1018.6 |
| 20260503190052 | 12 | 114 | 1.6 | 4.8 | 0.00 | 0.00 | 0.00 | 51 | 1018.5 |
| 20260503184557 | 13 | 140 | 1.6 | 4.8 | 0.00 | 0.00 | 0.00 | 46 | 1018.4 |
| 20260503183107 | 14 | 0 | 1.6 | 8.0 | 0.00 | 0.00 | 0.00 | 43 | 1018.3 |
| 20260503181548 | 14 | 229 | 1.6 | 4.8 | 0.00 | 0.00 | 0.00 | 42 | 1018.1 |
| 20260503180050 | 15 | 255 | 4.8 | 12.9 | 0.00 | 0.00 | 0.00 | 43 | 1018.0 |
| 20260503174550 | 15 | 5 | 6.4 | 12.9 | 0.00 | 0.00 | 0.00 | 43 | 1017.8 |
| 20260503173109 | 16 | 184 | 1.6 | 16.1 | 0.00 | 0.00 | 0.00 | 40 | 1017.8 |
| 20260503171545 | 17 | 101 | 8.0 | 17.7 | 0.00 | 0.00 | 0.00 | 40 | 1017.8 |